User: anonymous   Login
Location: Unspecified
(0.0000°N, 0.0000°E)
Time: 10:21:06
(UTC+00:00)
Language:

PAYLOAD D - Orbit

View from above orbital plane
View from above orbital plane
View from above satellite
View from above satellite

Ground track
Ground track

The orbit data is extracted from the following two-line orbital elements,

1 27058U 01058D   17080.82707512 +.00000012 +00000-0 +86615-5 0  9998
2 27058 082.5369 206.5269 0004378 086.8061 273.3532 12.62015627701643
Epoch (UTC): 21 March 2017 19:50:59
Eccentricity: 0.0004378
inclination: 82.5369°
perigee height: 1411 km
apogee height: 1418 km
right ascension of ascending node: 206.5269°
argument of perigee: 86.8061°
revolutions per day: 12.62015627
mean anomaly at epoch: 273.3532°
orbit number at epoch: 70164

The dashed part of the orbit path shows where the satellite is in the earth's shadow,  

DLR